SL-8 DEB *

Satellite information

Favourite Embed

Satellite Type and Status

DEBRISIN ORBIT

Key statistics

Satellite SL-8 DEB * at a glance.

Uptime

15825

Days in orbit

Revolutions

≈ 14.7

Per day

Orbit

LEO

Low Earth Orbit

Inclination

74.0

Latest

Satellite identification and parameters

Extended collection of information and parameters for SL-8 DEB *.

Object identification

Identified? True

Debris? True

Object name: SL-8 DEB *

International designator: 1982-001C

Object number (NORAD): 13029

Object ID (CCSDS): 13029

Country: COMMONWEALTH OF INDEPENDENT STATES (CIS)

Current information (Y/N): Y

RCS size: SMALL

Orbital parameters

Period: 97.75 minutes

Inclination: 73.9681 deg

SMA: 7029.171 km

Apoapsis: 656.927 km

Periapsis: 645.146 km

RAAN: 165.7886 deg

Eccentricy: 0.000838

Argument of periapsis: 335.9084 deg

Mean anomaly: 86.432 deg

Mean motion: 14.73148656 rev/day

Mean motion (dot): 0.00003743 rev/day2

B* drag term: 0.0005853 1/REarth

Two-line elements (TLE)

Creation date: May 6, 2025, 3:54 a.m.

Reference frame: TEME

Reference center: EARTH

Epoch: May 5, 2025, 9:55 p.m. UTC

TLE line 0: 0 SL-8 DEB *

TLE line 1: 1 13029U 82001C 25125.91320157 .00003743 00000-0 58530-3 0 9990

TLE line 2: 2 13029 73.9681 165.7886 0008380 335.9084 86.4320 14.73148656236024

Live tracking on map

Real-time ground track for satellite SL-8 DEB *.

In-orbit conjunctions

A list of the most updated potential collisions computed for object SL-8 DEB *.

Target Orbit TCA Probability of collision Miss distance Type
NOAA 16 DEB SSO 2025-02-02 00:20:13 0.000133593 204.0 (m) DEBRIS
CZ-6A DEB SSO 2024-11-14 12:01:31 0.000470948 587.0 (m) DEBRIS

Associated space launch

Military communications satellite

SL-8 DEB * was lifted into orbit during the mission ‘Kosmos-3M | Strela-2M 26’, on board a Kosmos-3M space rocket.

The launch took place on Jan. 7, 1982, 3:38 p.m. from 132/2.

For more information about the launch, click the button.

Launch to space Kosmos-3M | Strela-2M 26
Kosmos-3M | Strela-2M 26

Agency: N/A

Status: Launch Successful

Launch date: Jan. 7, 1982, 3:38 p.m. UTC

Rocket: Kosmos-3M

Launch pad: 132/2

Location: Plesetsk Cosmodrome, Russian Federation

...

Latest news about this satellite

There are no fresh news available about this satellite. Check back as we update our databases every day.


Newsletter sign-up

Weekly statistics, charts and insights to help you stay on top of the space industry.